Regional Weather Roundup
Issued by NWS

Home | Current Version | Previous Version | Text Only | Print | Product List | Glossary Off
Versions: 1 2 3 4 5 6 7 8 9 10 11 12 13 14 15 16 17 18 19 20 21 22 23 24 25 26 27 28 29 30 31 32 33 34 35 36 37 38 39 40 41 42 43 44 45 46 47 48 49 50

930
ASUS44 KJAN 201403
RWRMS

MISSISSIPPI HOURLY WEATHER ROUNDUP
NATIONAL WEATHER SERVICE JACKSON MS
900 AM CDT SUN APR 20 2014

NOTE: "FAIR: INDICATES FEW OR NO CLOUDS BELOW 12,000 FEET WITH NO
SIGNIFICANT WEATHER AND/OR OBSTRUCTIONS TO VISIBILITY.

MSZ001>002-007>008-010>013-018>021-025>028-034>036-201500-
NORTHWEST MISSISSIPPI

CITY           SKY/WX    TMP DP  RH WIND       PRES   REMARKS
CLARKSDALE       N/A     63  52  67 CALM      30.22R
CLEVELAND      FAIR      65  52  62 S7        30.21R
GREENWOOD      SUNNY     64  53  67 SE9       30.22R
GREENVILLE     SUNNY     65  50  58 SE3       30.20R
GRENADA        FAIR      63  52  67 SE6       30.24R
OLIVE BRANCH   PTSUNNY   63  46  55 S12       30.23R
OXFORD         FAIR      61  46  59 S7        30.25R
TUNICA         SUNNY     64  50  59 SE8       30.22R
$$

MSZ003>006-009-014>017-022>024-029>033-037>039-201500-
NORTHEAST MISSISSIPPI

CITY           SKY/WX    TMP DP  RH WIND       PRES   REMARKS
BELMONT        FAIR      60  47  62 SE8       30.25F
COLUMBUS AFB   SUNNY     62  49  61 SE6       30.26R
CORINTH        FAIR      63  48  59 S10       30.24S
GOLDN TRIANGLE SUNNY     63  46  55 SE9       30.28R
STARKVILLE     FAIR      61  50  67 SE7       30.25S
TUPELO         SUNNY     63  45  51 S14G22    30.25R
$$

MSZ040-058-201500-
CENTRAL MISSISSIPPI

CITY           SKY/WX    TMP DP  RH WIND       PRES   REMARKS
JACKSON INTL   MOSUNNY   64  55  72 SE7       30.23R
JACKSON HAWKNS SUNNY     64  53  67 SE9       30.22R
MERIDIAN KEY   MOSUNNY   61  51  70 NE6       30.23S
MERIDIAN NAS   SUNNY     61  49  64 E8        30.24S
RAYMOND        FAIR      63  57  82 SE6       30.22R
VICKSBURG      SUNNY     65  55  70 E5        30.20R
$$

MSZ059>079-201500-
SOUTH MISSISSIPPI

CITY           SKY/WX    TMP DP  RH WIND       PRES   REMARKS
BROOKHAVEN     FAIR      63  55  77 E3        30.23R
COLUMBIA       FAIR      64  55  72 MISG      30.20R
HATTIESBURG    SUNNY     63  56  78 E5        30.22S
MCCOMB         SUNNY     63  54  72 E6        30.20R
NATCHEZ        SUNNY     64  57  77 CALM      30.19S
PINE BELT      MOSUNNY   61  54  77 E5        30.22S
$$

MSZ080>082-201500-
COASTAL MISSISSIPPI

CITY           SKY/WX    TMP DP  RH WIND       PRES   REMARKS
BAY ST LOUIS   SUNNY     64  54  68 NE7       30.18F
BILOXI         SUNNY     65  54  68 E9        30.18F
PASCAGOULA     SUNNY     64  54  69 NE10      30.19S
GULFPORT       SUNNY     68  54  60 NE9       30.18F
$$



USA.gov is the U.S. government's official web portal to all federal, state and local government web resources and services.